Probability
0 0 0 0 0 0 0 0 0 0 0 0 0 0 3 3 0 0 0 0 0 0 0 0 3 3 6 6 6 3 6 6 3 0 0 3 10 10 10 10 10 3 3 3
0 0 0 0 0 0 0 0 0 0 0 0 0 0 0 0 0 0 0 0 0 0 0 0 0 3 6 6 10 6 6 10 6 10 3 6 6 3 6 10 3 6 0 0
0 0 0 0 0 0 0 0 0 0 0 0 0 0 0 0 0 0 0 0 0 0 0 0 0 3 3 6 10 10 13 6 10 13 10 6 6 10 3 10 10 3 0 0
0 0 0 0 0 0 0 0 0 0 0 0 0 0 0 0 0 0 0 0 0 0 0 0 0 0 3 10 10 13 13 13 10 13 13 10 10 6 3 0 0 10 3 0
0 0 0 0 0 0 0 0 0 0 0 0 0 0 0 0 0 0 0 0 0 0 0 0 0 0 3 10 10 10 6 13 16 10 13 10 10 10 6 3 3 3 3 3
0 0 0 0 0 0 0 0 0 0 0 0 0 0 0 0 0 0 0 0 0 0 0 0 0 0 0 10 10 10 10 13 16 6 10 13 10 10 10 3 3 3 3 6
0 0 0 0 0 0 0 0 0 0 0 0 0 0 0 0 0 0 0 0 0 0 0 0 0 0 3 6 10 10 10 13 10 13 6 10 6 10 6 6 6 3 3 3
0 0 0 0 0 0 0 0 0 0 0 0 0 0 0 0 0 0 0 0 0 0 0 0 0 0 0 6 10 10 10 10 13 13 10 10 10 6 6 6 6 3 3 3
0 0 0 0 0 0 0 0 0 0 0 0 0 0 0 0 0 0 0 0 0 0 0 3 3 3 0 3 6 13 13 13 16 13 10 13 10 10 10 10 10 10 6 6
0 0 0 0 0 0 0 0 0 0 0 0 0 0 0 0 0 0 0 0 0 0 0 3 3 3 3 6 10 10 10 6 13 13 10 6 10 10 10 10 10 10 6 3
0 0 0 0 0 0 0 0 0 0 0 0 0 0 0 0 0 0 0 0 0 0 0 3 3 3 3 3 10 10 10 3 6 6 10 10 6 10 10 10 10 10 6 3
0 0 0 0 0 0 0 0 0 0 0 0 0 0 0 0 0 0 0 0 0 0 0 3 3 0 0 0 6 6 6 3 3 3 6 6 6 6 10 10 10 10 10 6
0 0 0 0 0 0 0 0 0 0 0 0 0 0 0 0 0 0 0 0 0 0 0 0 0 0 3 3 3 3 3 3 3 3 3 6 3 3 10 10 10 10 6 6
0 0 0 0 0 0 0 0 0 0 0 0 0 0 0 0 0 0 0 0 0 0 0 0 0 3 3 3 0 3 3 3 3 3 3 3 6 6 10 0 6 6 6 10
0 0 0 0 0 0 0 0 0 0 0 0 0 0 0 0 0 3 0 0 0 0 0 0 0 0 0 0 3 6 3 3 6 6 6 6 6 3 3 0 0 3 3 3
0 0 0 0 0 0 0 0 0 0 0 0 0 0 0 0 0 0 0 0 0 3 0 0 0 3 3 0 0 6 6 6 3 3 3 3 6 6 6 0 0 0 3 0
0 0 0 0 0 0 0 0 0 0 0 0 0 0 0 0 0 0 0 3 3 0 0 0 0 3 3 3 3 6 6 3 3 3 10 10 6 6 6 0 0 0 3 3
0 0 0 0 0 0 0 0 0 0 0 0 0 0 0 0 0 0 0 0 0 0 0 0 0 0 3 3 3 3 3 6 3 3 3 3 3 3 3 0 0 3 3 3
0 0 0 0 0 0 0 0 0 0 0 0 0 0 0 0 0 0 0 0 0 0 0 0 0 0 0 3 3 3 0 0 0 6 6 3 3 0 3 0 0 3 3 3
0 0 0 0 0 0 0 0 0 0 0 0 0 0 0 0 0 0 0 0 0 0 0 0 0 0 0 0 3 3 3 0 0 0 0 0 3 0 0 0 0 3 3 3
0 0 0 0 0 0 0 0 0 0 0 0 0 0 0 0 0 0 0 0 0 0 0 0 0 0 0 3 3 6 6 3 0 0 0 3 0 0 3 0 0 3 6 6
0 0 0 0 0 0 0 0 0 0 0 0 0 0 0 0 0 0 0 0 0 0 0 0 0 0 0 0 0 3 3 3 6 6 3 3 3 6 6 3 0 3 3 3
0 0 0 0 0 0 0 0 0 0 0 0 0 0 0 0 0 0 0 0 0 0 0 0 0 0 0 0 0 3 3 3 3 6 6 6 6 6 3 3 3 3 3 3
0 0 0 0 0 0 0 0 0 0 0 0 0 0 0 0 0 0 0 0 0 0 0 0 0 0 0 0 0 0 0 3 3 3 3 3 3 3 3 3 3 6 3 3
0 0 0 0 0 0 0 0 0 0 0 0 0 0 0 0 0 0 0 0 0 0 0 0 0 0 0 0 0 0 0 0 0 3 3 3 3 3 3 3 3 3 3 3
0 0 0 0 0 0 0 0 0 0 0 0 0 0 0 0 0 0 0 0 0 0 0 0 0 0 0 0 0 0 0 0 0 0 3 3 3 3 3 3 0 0 0 0
Height
5841 5842 5843 5843 5843 5844 5844 5844 5844 5844 5843 5843 5842 5842 5842 5841 5841 5841 5841 5841 5841 5841 5841 5841 5840 5840 5840 5840 5839 5839 5838 5838 5837 5836 5836 5835 5835 5834 5833 5833 5832 5831 5830 5829
5839 5840 5840 5840 5841 5841 5841 5841 5840 5840 5840 5839 5839 5839 5838 5838 5838 5838 5837 5837 5837 5837 5837 5837 5836 5836 5836 5836 5835 5835 5834 5834 5833 5832 5831 5831 5830 5830 5829 5828 5827 5827 5826 5825
5836 5838 5837 5837 5837 5837 5837 5837 5837 5836 5836 5835 5835 5835 5834 5834 5834 5834 5833 5833 5833 5833 5833 5832 5832 5832 5832 5831 5831 5830 5830 5829 5828 5828 5827 5826 5825 5825 5824 5823 5823 5822 5822 5821
5834 5834 5834 5834 5834 5834 5833 5833 5833 5833 5832 5832 5832 5830 5830 5830 5829 5829 5829 5828 5828 5828 5828 5828 5828 5828 5827 5826 5826 5825 5825 5824 5824 5823 5822 5821 5820 5820 5819 5819 5818 5817 5817 5816
5830 5830 5830 5830 5830 5830 5830 5830 5829 5829 5828 5828 5828 5827 5826 5825 5824 5824 5824 5823 5823 5823 5823 5823 5823 5822 5821 5821 5821 5820 5820 5819 5818 5817 5817 5816 5815 5815 5814 5813 5813 5812 5811 5811
5827 5827 5827 5827 5826 5827 5826 5826 5825 5825 5824 5824 5824 5823 5821 5821 5820 5819 5818 5818 5818 5818 5817 5817 5817 5817 5815 5815 5815 5815 5814 5813 5812 5812 5811 5810 5809 5809 5808 5808 5807 5807 5806 5806
5823 5823 5823 5823 5823 5823 5823 5823 5822 5821 5820 5821 5820 5819 5818 5817 5816 5815 5814 5813 5813 5812 5812 5812 5811 5811 5810 5809 5809 5809 5808 5807 5806 5805 5805 5804 5803 5803 5802 5802 5801 5801 5800 5800
5819 5820 5819 5819 5820 5819 5819 5819 5819 5818 5817 5817 5816 5814 5814 5812 5811 5810 5809 5808 5807 5807 5806 5806 5805 5805 5804 5803 5802 5802 5801 5800 5800 5799 5798 5797 5797 5796 5796 5795 5795 5795 5794 5794
5815 5816 5816 5815 5815 5815 5815 5814 5814 5813 5812 5811 5811 5810 5808 5807 5805 5804 5803 5802 5801 5800 5799 5799 5798 5797 5796 5796 5795 5794 5794 5793 5792 5792 5791 5790 5789 5789 5789 5789 5788 5788 5788 5787
5812 5812 5812 5811 5811 5810 5811 5810 5810 5808 5807 5806 5806 5805 5804 5802 5800 5798 5796 5795 5794 5793 5792 5792 5791 5790 5789 5788 5787 5786 5785 5785 5784 5783 5782 5782 5781 5781 5781 5781 5781 5781 5781 5781
5807 5807 5807 5807 5806 5806 5806 5806 5804 5803 5802 5801 5800 5801 5799 5797 5794 5792 5790 5789 5787 5787 5786 5786 5785 5784 5783 5781 5780 5779 5778 5777 5776 5775 5774 5773 5773 5773 5773 5774 5773 5773 5773 5773
5802 5802 5802 5802 5802 5801 5800 5800 5799 5799 5797 5795 5793 5796 5793 5791 5789 5787 5785 5783 5782 5781 5780 5779 5778 5777 5776 5774 5773 5772 5770 5769 5767 5766 5765 5765 5765 5764 5765 5765 5765 5765 5766 5766
5797 5797 5797 5797 5798 5796 5795 5794 5794 5792 5791 5789 5788 5789 5787 5785 5783 5781 5779 5778 5776 5775 5774 5773 5771 5771 5769 5768 5766 5765 5763 5761 5760 5758 5757 5756 5756 5756 5756 5757 5757 5757 5758 5758
5792 5792 5792 5792 5791 5789 5789 5788 5787 5786 5784 5783 5782 5781 5780 5779 5777 5775 5773 5772 5770 5769 5767 5766 5765 5763 5762 5761 5759 5758 5756 5754 5752 5750 5749 5748 5747 5747 5748 5748 5748 5749 5749 5750
5786 5786 5785 5785 5784 5783 5782 5782 5781 5779 5778 5776 5775 5774 5773 5772 5770 5768 5767 5765 5763 5762 5760 5759 5757 5756 5755 5754 5752 5750 5748 5746 5745 5743 5741 5740 5739 5739 5739 5740 5740 5741 5741 5741
5779 5779 5779 5778 5777 5776 5775 5775 5773 5772 5771 5769 5768 5768 5767 5765 5763 5762 5760 5758 5757 5755 5753 5752 5750 5749 5747 5746 5745 5743 5741 5739 5737 5735 5733 5732 5731 5731 5731 5732 5732 5733 5733 5733
5773 5773 5772 5771 5770 5768 5769 5769 5767 5765 5764 5763 5762 5762 5759 5758 5756 5755 5753 5751 5749 5748 5746 5744 5743 5742 5741 5739 5737 5735 5734 5732 5730 5728 5726 5724 5723 5723 5723 5723 5724 5724 5724 5724
5766 5765 5764 5764 5763 5761 5765 5761 5759 5758 5757 5756 5754 5754 5752 5751 5750 5748 5746 5744 5742 5741 5739 5737 5735 5734 5733 5732 5730 5728 5726 5725 5723 5721 5719 5717 5716 5716 5715 5714 5715 5716 5715 5716
5759 5758 5757 5756 5755 5754 5756 5754 5752 5751 5750 5749 5747 5747 5745 5744 5742 5741 5739 5737 5735 5733 5731 5730 5728 5727 5725 5724 5723 5721 5719 5718 5716 5714 5712 5710 5709 5709 5708 5707 5707 5707 5707 5707
5752 5751 5751 5749 5748 5747 5749 5747 5745 5744 5743 5742 5740 5739 5738 5737 5735 5734 5732 5729 5728 5726 5724 5722 5721 5719 5718 5717 5715 5713 5712 5710 5709 5707 5705 5704 5702 5701 5701 5700 5699 5699 5699 5698
5745 5744 5743 5743 5740 5740 5741 5740 5738 5738 5737 5735 5733 5732 5730 5729 5728 5726 5724 5722 5721 5718 5716 5714 5713 5712 5710 5709 5707 5705 5704 5702 5701 5699 5698 5697 5695 5694 5693 5692 5692 5691 5691 5690
5737 5737 5736 5735 5734 5735 5734 5732 5732 5731 5728 5727 5726 5724 5723 5722 5720 5718 5717 5715 5713 5711 5709 5707 5705 5704 5703 5701 5699 5697 5696 5694 5693 5691 5690 5689 5688 5687 5686 5685 5684 5683 5682 5682
5730 5730 5729 5728 5728 5727 5726 5724 5723 5722 5720 5719 5718 5717 5716 5714 5713 5711 5709 5707 5705 5704 5702 5700 5698 5697 5695 5693 5691 5690 5688 5687 5685 5684 5682 5681 5680 5678 5677 5676 5676 5675 5674 5673
5722 5722 5721 5719 5719 5719 5717 5716 5715 5714 5712 5711 5710 5709 5708 5706 5705 5703 5702 5700 5698 5696 5694 5692 5690 5689 5688 5686 5684 5683 5681 5679 5677 5675 5674 5673 5672 5670 5669 5668 5667 5666 5665 5664
5714 5713 5712 5711 5711 5710 5709 5708 5707 5706 5704 5703 5702 5701 5699 5698 5697 5696 5694 5692 5690 5688 5687 5685 5683 5681 5680 5679 5677 5675 5673 5671 5669 5667 5666 5665 5663 5662 5661 5660 5659 5658 5657 5656
5706 5705 5704 5703 5702 5701 5701 5700 5698 5697 5696 5695 5693 5692 5691 5690 5689 5688 5686 5685 5683 5681 5679 5677 5676 5674 5673 5671 5669 5667 5665 5663 5661 5659 5658 5656 5655 5654 5653 5652 5651 5649 5649 5648
Wind_Speed
9 10 11 11 12 13 13 14 15 15 16 16 16 16 15 16 16 17 17 17 17 17 17 17 18 19 19 19 20 20 19 19 18 19 19 18 18 19 19 19 19 19 19 19
10 11 12 13 13 13 14 14 15 16 17 17 17 17 17 17 17 18 18 18 18 18 19 19 20 20 20 21 21 21 21 20 20 20 20 20 20 20 20 20 20 20 20 20
12 12 13 14 14 14 15 15 16 16 17 17 18 18 18 19 18 19 19 19 19 20 20 20 21 21 21 21 21 21 21 21 21 21 21 21 21 21 21 21 21 20 20 21
12 13 14 15 15 15 15 15 15 16 17 16 17 19 19 19 19 20 20 21 21 21 21 21 21 21 22 22 21 22 22 22 22 22 22 22 22 21 21 21 21 21 21 21
13 14 15 15 15 15 15 15 15 16 16 16 17 20 21 20 20 20 21 22 22 22 23 23 22 23 23 22 22 22 22 23 23 23 23 23 23 23 22 22 22 22 22 21
14 14 15 15 16 15 15 15 15 15 16 17 17 19 21 21 21 21 22 22 22 23 23 23 24 24 24 23 23 23 24 24 24 24 24 24 24 23 23 23 23 22 22 22
14 14 15 15 15 15 15 15 15 16 17 18 18 20 21 21 21 22 22 22 22 22 23 23 24 25 25 25 25 25 25 25 25 25 25 25 24 24 24 24 24 24 23 23
14 15 16 16 15 15 15 15 16 16 16 18 18 20 21 22 23 23 23 23 22 22 22 23 25 25 25 25 26 26 26 25 25 26 26 26 26 25 25 24 24 24 24 24
15 16 17 17 16 16 16 15 16 17 17 18 19 20 21 22 24 25 24 24 23 23 24 24 25 25 24 26 26 26 26 26 26 27 28 27 27 27 26 25 26 25 25 24
16 17 17 17 18 18 17 16 17 18 19 19 19 21 21 21 23 23 24 24 24 25 24 24 25 25 25 26 26 26 27 28 28 28 28 29 28 27 27 26 26 26 26 26
17 18 18 18 18 18 18 18 18 19 20 20 21 22 20 21 22 23 23 23 23 23 24 24 24 25 25 24 25 26 27 28 28 28 28 29 28 28 27 26 26 26 26 25
18 18 18 18 19 19 19 18 18 20 21 22 24 24 22 21 20 23 23 23 23 24 24 24 23 24 23 24 25 26 26 27 27 28 28 28 28 28 28 27 27 26 26 26
18 19 18 18 20 20 20 20 21 22 23 24 24 25 22 21 21 21 23 24 24 24 24 25 25 25 24 24 25 25 25 26 26 27 28 28 28 28 28 28 28 28 27 27
21 21 20 20 20 21 21 21 21 22 23 25 25 25 23 23 22 23 23 25 26 26 25 25 25 25 25 25 25 26 25 26 26 26 27 28 28 28 28 28 29 29 28 28
22 22 22 22 22 23 23 23 23 24 25 26 25 26 25 25 24 24 24 24 25 26 26 26 26 26 26 25 26 26 26 26 26 27 27 28 27 27 27 27 28 28 28 28
24 24 24 24 24 25 25 24 24 25 25 25 25 25 24 26 27 26 25 25 25 26 27 28 27 26 26 26 26 27 26 26 27 27 27 26 26 26 27 27 27 28 28 28
25 25 25 25 25 27 26 24 25 26 25 25 25 25 25 27 27 27 26 26 26 27 28 28 27 27 26 26 26 27 26 26 27 27 27 26 25 26 26 26 27 28 28 29
26 26 26 27 27 28 25 25 26 26 25 26 26 26 27 27 27 27 27 27 27 27 27 27 27 26 25 25 26 26 26 25 26 26 25 25 25 25 25 25 25 27 28 29
26 27 27 27 28 28 26 26 26 26 25 26 27 27 27 28 27 27 27 28 28 28 28 28 27 26 26 26 26 26 26 26 26 25 24 25 25 25 26 25 25 26 27 28
26 26 27 27 28 28 26 26 27 27 26 26 27 27 27 27 28 27 27 27 27 28 28 27 26 26 26 26 26 26 26 27 26 25 25 25 25 25 25 25 25 26 27 26
26 26 26 27 28 28 28 27 27 27 26 26 26 27 27 27 28 28 28 28 28 28 28 27 26 26 26 27 27 26 26 26 26 26 26 26 26 25 25 25 25 26 26 26
27 27 27 28 29 29 28 27 27 27 27 27 28 28 27 27 27 28 28 28 27 27 27 27 26 26 27 27 26 26 26 26 26 26 26 26 26 25 25 26 26 26 27 26
28 28 28 29 30 29 29 29 28 28 28 28 29 28 28 28 27 27 28 28 27 27 27 26 26 26 26 27 27 26 26 27 27 26 26 26 26 26 26 26 27 27 26 27
29 29 29 31 31 30 29 30 29 28 28 28 29 29 28 28 28 28 27 27 27 27 27 26 25 25 26 27 27 27 27 27 27 27 27 27 26 25 25 26 26 27 27 27
29 29 30 30 30 30 29 29 29 29 29 29 29 29 29 28 28 28 28 28 27 27 27 26 25 25 26 27 27 27 27 27 27 26 26 26 26 26 26 26 27 27 27 27
29 30 31 31 31 30 29 30 30 29 29 29 30 29 28 29 28 28 28 28 27 27 27 27 26 26 27 28 28 27 27 27 26 26 26 27 27 26 26 26 26 27 28 28
Wind_Direction
255 257 258 264 266 265 267 272 276 277 278 282 285 284 283 281 280 280 281 280 279 279 281 281 282 283 284 285 285 286 287 288 287 288 288 288 288 289 289 288 288 289 289 289
261 263 263 266 268 268 270 271 275 276 280 283 284 283 281 280 282 281 281 280 280 281 281 280 281 282 283 284 286 286 286 286 286 287 287 287 286 287 287 287 286 287 288 289
269 267 266 267 267 270 271 271 274 278 282 284 284 283 282 281 283 282 281 281 280 280 280 280 280 281 281 283 284 285 285 285 286 286 287 287 286 286 286 286 286 287 287 287
270 268 268 268 270 271 269 273 277 280 282 285 287 287 286 285 285 285 283 281 281 281 281 281 281 281 281 281 281 282 283 284 284 284 286 287 287 286 286 286 286 287 287 288
272 273 274 273 272 272 273 276 278 281 284 284 285 285 289 290 289 288 286 283 282 280 280 281 281 281 282 280 279 280 281 283 283 283 284 285 284 284 285 285 285 285 286 286
275 278 278 278 275 273 275 276 282 286 287 284 283 282 286 290 290 289 288 286 284 282 281 280 281 282 281 280 280 281 282 282 282 282 282 282 282 282 283 283 283 282 283 284
271 275 279 278 277 276 278 282 285 287 286 286 288 285 285 288 289 288 287 287 287 284 280 278 280 280 281 282 281 281 281 281 281 281 281 282 280 280 281 281 281 281 281 280
271 273 275 278 280 282 281 283 285 284 284 283 283 283 286 288 288 288 287 285 285 284 281 279 279 280 280 281 281 280 280 280 280 280 279 280 279 278 279 280 280 280 280 279
268 269 273 275 277 280 280 279 281 280 279 277 280 282 282 287 288 288 288 286 284 284 282 282 282 283 281 281 281 280 280 279 279 278 278 278 278 277 276 278 279 278 278 278
271 271 272 274 276 278 278 277 277 279 280 278 279 281 284 286 287 288 286 284 283 283 283 283 282 283 284 284 284 283 282 281 279 278 278 278 278 278 277 279 278 277 276 276
271 272 274 274 274 278 279 278 279 280 280 280 278 279 284 285 287 288 288 286 285 286 286 286 286 284 284 285 286 285 284 284 281 279 279 278 277 276 276 276 277 277 277 277
269 272 274 276 277 277 277 277 279 280 280 277 278 280 283 286 286 286 289 287 287 287 286 288 288 287 287 287 287 287 286 285 284 282 280 278 276 274 274 274 275 277 277 277
269 272 273 276 278 278 277 277 279 279 279 278 277 280 281 282 282 283 286 286 285 285 286 286 287 288 289 288 288 288 288 287 285 284 282 281 278 276 273 272 273 275 275 275
270 271 272 275 279 280 278 278 278 278 278 279 279 280 281 282 281 283 285 286 286 286 288 288 289 290 290 287 287 287 287 287 286 286 285 283 279 276 274 272 272 274 274 275
270 272 272 273 275 277 277 278 277 276 277 279 280 280 282 282 281 283 284 285 287 288 288 288 289 289 288 288 288 289 288 287 288 289 288 284 280 276 275 272 273 274 274 275
272 273 274 274 275 277 277 277 278 279 279 280 280 281 280 280 281 283 286 285 286 286 287 287 289 290 290 289 288 290 290 290 289 290 289 285 280 277 275 273 273 274 274 275
273 274 276 277 277 276 278 281 281 281 280 280 278 279 279 278 279 283 287 287 286 286 287 288 288 289 290 290 289 290 291 292 291 292 290 286 281 278 276 274 274 275 274 275
274 274 275 276 276 277 282 281 281 280 279 279 278 277 278 281 282 283 286 288 286 287 288 288 287 286 289 290 290 290 291 294 293 292 289 286 282 280 277 277 276 276 277 276
274 274 275 276 277 279 280 282 283 283 281 279 278 278 279 281 284 285 286 288 288 288 290 289 286 286 286 287 289 291 292 293 292 291 289 287 284 281 279 279 278 279 279 277
271 272 273 276 278 279 281 283 284 284 283 282 280 280 281 282 283 285 287 287 287 289 289 288 287 286 286 286 288 290 291 292 291 290 288 287 287 284 281 280 280 280 280 280
272 271 271 274 276 277 280 282 283 283 285 284 283 282 280 281 284 287 287 288 288 287 287 288 286 286 285 286 288 288 291 291 291 290 288 288 287 285 284 284 283 282 282 281
272 272 273 275 275 277 280 280 281 283 284 284 284 284 282 283 285 287 289 290 288 288 287 286 285 285 286 286 289 291 291 292 290 289 288 287 286 285 285 286 285 284 284 283
269 271 273 275 277 279 280 279 279 281 282 283 284 284 283 284 286 289 290 291 290 288 288 286 284 285 285 286 289 292 293 292 290 289 288 286 285 285 284 283 284 284 285 284
268 270 272 274 275 276 276 277 279 280 281 282 284 283 282 284 286 288 289 291 291 290 290 286 285 284 285 286 288 291 293 294 293 290 288 287 285 285 285 284 285 285 283 283
271 271 273 276 278 277 276 276 278 278 278 279 281 283 282 283 286 287 288 289 290 291 289 286 285 285 287 287 289 291 292 293 293 292 290 287 285 284 285 285 285 284 282 281
272 273 275 277 276 276 277 276 277 277 276 277 280 282 283 282 283 285 287 288 290 289 289 286 284 287 287 287 289 291 293 294 294 293 291 288 287 287 286 285 283 282 281 282